Regional Weather Roundup
Issued by NWS Kansas City/Pleasant Hill, MO

Home | Current Version | Previous Version | Text Only | Print | Product List | Glossary On
Versions: 1 2 3 4 5 6 7 8 9 10 11 12 13 14 15 16 17 18 19 20 21 22 23 24 25 26 27 28 29 30 31 32 33 34 35 36 37 38 39 40 41 42 43 44 45 46 47 48 49 50
000
ASUS43 KEAX 231411
RWREAX

WEATHER ROUNDUP FOR EASTERN KANSAS AND NORTHWEST MISSOURI
NATIONAL WEATHER SERVICE KANSAS CITY/PLEASANT HILL MO
900 AM CDT TUE SEP 23 2014

KSZ040-057-103>105-MOZ028-029-037-043-231500-
...KANSAS CITY METROPOLITAN AREA...

CITY           SKY/WX    TMP DP  RH WIND       PRES   REMARKS
K.C. INTL      PTSUNNY   61  53  75 S10       30.25R
K.C. DOWNTOWN  PTSUNNY   64  51  62 S6        30.26R
LEES SUMMIT    PTSUNNY   60  51  72 S6        30.27R
OLATHE - IXD   MOSUNNY   60  52  74 S9        30.26R
OLATHE - OJC   PTSUNNY   58  53  84 S5        30.26R
LAWRENCE       MOSUNNY   60  54  80 SE5       30.25R

$$

MOZ001>008-011>017-020>025-030>033-038>040-044>046-053-054-231500-
...NORTHERN AND CENTRAL MISSOURI...

CITY           SKY/WX    TMP DP  RH WIND       PRES   REMARKS
ST. JOSEPH     CLOUDY    60  53  77 S3        30.24S
MOSBY          PTSUNNY   55  54  94 SE3       30.27R
WHITEMAN AFB   MOSUNNY   59  53  80 S7        30.29R
CLINTON        PTSUNNY   59  54  82 S6        30.29R
SEDALIA        MOSUNNY   60  51  72 S9        30.30R
WARSAW         NOT AVBL
MARSHALL       PTSUNNY   61  55  82 S3        30.31R
CHILLICOTHE      N/A     58  51  78 SE5       30.30R
MOBERLY        MOSUNNY   55  48  76 S3        30.32R
KIRKSVILLE     PTSUNNY   58  51  78 S5        30.32R

$$

MOZ041-047>049-056>058-063>065-088>090-097-231500-
...EASTERN AND SOUTHERN MISSOURI...

CITY           SKY/WX    TMP DP  RH WIND       PRES   REMARKS
ST. LOUIS INTL MOSUNNY   63  49  60 S7        30.32R
SPIRIT OF STL  MOSUNNY   55  51  86 CALM      30.32R
COLUMBIA       SUNNY     55  50  83 S3        30.31R
JEFFERSON CITY SUNNY     52  50  93 SE3       30.31R
MEXICO         SUNNY    N/A N/A N/A CALM      30.31R
HANNIBAL       MOSUNNY   64  46  52 SE7       30.32R
ROLLA          SUNNY     57  47  69 S7        30.30R
LEBANON        SUNNY     61  48  63 S6        30.31R
OSAGE BEACH    SUNNY     55  46  71 S5        30.31R
SPRINGFIELD    SUNNY     59  50  72 SE8       30.29R
BRANSON        MOSUNNY   57  55  94 CALM      30.30R
NEVADA         PTSUNNY   59  54  82 SE6       30.28S
JOPLIN         MOSUNNY   61  53  75 SE8       30.27R
WEST PLAINS    SUNNY     57  49  74 CALM      30.31R

$$

IAZ060-094-KSZ022-034>040-054-083-096-NEZ052-066-093-231500-
...KANSAS...SOUTHEAST NEBRASKA AND IOWA...

CITY           SKY/WX    TMP DP  RH WIND       PRES   REMARKS
TOPEKA         CLOUDY    60  54  80 SE6       30.23F
MANHATTAN      LGT RAIN  61  54  77 S8        30.19R
EMPORIA        PTSUNNY   58  54  86 S12       30.23S
CHANUTE        MOSUNNY   61  56  83 S5        30.26R
WICHITA        PTSUNNY   63  52  67 S12       30.19S
OMAHA          CLOUDY    61  53  75 SE10      30.20R
LINCOLN        RAIN      59  55  87 S3        30.18S FOG
FALLS CITY     CLOUDY    60  52  74 S9        30.19F
LAMONI         PTSUNNY   57  51  80 S7        30.27S
DES MOINES     CLOUDY    57  50  77 S6        30.27R

$$



USA.gov is the U.S. government's official web portal to all federal, state and local government web resources and services.